Gibraltar, Gibraltar

10:23 PM CEST on April 23, 2017 (GMT +0200)
Gibraltar Air Base

Weather History for LXGB - October, 2012

Change the Weather History Date:

Wednesday, October 17, 2012

  Actual Average Record
Temperature  
Mean Temperature 63 °F -  
Max Temperature 68 °F 66 °F 75 °F (1998)
Min Temperature 58 °F 58 °F 58 °F (2012)
Degree Days  
Heating Degree Days 2    
Growing Degree Days 13 (Base 50)    
Moisture  
Dew Point 56 °F    
Average Humidity 77    
Maximum Humidity 88    
Minimum Humidity 62    
Precipitation  
Precipitation 0.00 in - - ()
Sea Level Pressure  
Sea Level Pressure 29.90 in    
Wind  
Wind Speed 2 mph ()    
Max Wind Speed 7 mph    
Max Gust Speed -    
Visibility 6.7 miles    
Events      
Averages and records for this station are not official NWS values.
T = Trace of Precipitation, MM = Missing Value Source: Averaged Metar Reports

Daily Weather History Graph

Daily Weather History Graph

Search for Another Location

Airport or City:

Trip Planner

Search our weather history database for the weather conditions in past years. The results will help you decide how hot, cold, wet, or windy it might be!

Date:

Astronomy

Oct. 17, 2012 Rise Set
Actual Time 8:30 AM CEST 7:42 PM CEST
Civil Twilight 8:04 AM CEST 8:08 PM CEST
Nautical Twilight 7:34 AM CEST 8:38 PM CEST
Astronomical Twilight 7:04 AM CEST 9:07 PM CEST
Moon 10:42 AM CEST (10/17) 9:11 PM CEST (10/17)
Length of Visible Light 12h 04m
Length of Day
11h 12m
Waxing Crescent, 5% of the Moon is Illuminated
Oct 17
Waxing Crescent
Oct 22
First Quarter
Oct 29
Full
Nov 7
Last Quarter
Nov 13
New

Hourly Weather History & Observations

Time (CEST) Temp. Dew Point Humidity Pressure Visibility Wind Dir Wind Speed Gust Speed Precip Events Conditions
12:50 AM 60.8 °F 55.4 °F 82% 29.98 in 6.2 mi Calm Calm - N/A   Unknown
1:50 AM 62 °F 56 °F 77% 29.97 in 9 mi Calm Calm - -  
1:50 AM 60.8 °F 57.2 °F 88% 29.95 in 6.2 mi Calm Calm - N/A   Unknown
2:50 AM 62.6 °F 55.4 °F 77% 29.95 in 6.2 mi East 3.5 mph - N/A   Unknown
3:50 AM 60.8 °F 55.4 °F 82% 29.95 in 6.2 mi ENE 3.5 mph - N/A   Unknown
4:50 AM 60.8 °F 55.4 °F 82% 29.92 in 6.2 mi Calm Calm - N/A   Unknown
5:50 AM 60.8 °F 53.6 °F 77% 29.92 in 6.2 mi East 3.5 mph - N/A   Unknown
6:50 AM 59.0 °F 55.4 °F 88% 29.92 in 6.2 mi North 3.5 mph - N/A   Partly Cloudy
7:50 AM 58 °F 54 °F 83% 29.93 in 9 mi Calm Calm - -   Partly Cloudy
7:50 AM 59.0 °F 53.6 °F 82% 29.92 in 6.2 mi Calm Calm - N/A   Scattered Clouds
8:50 AM 59.0 °F 53.6 °F 82% 29.92 in 6.2 mi ENE 2.3 mph - N/A   Scattered Clouds
9:50 AM 60.8 °F 53.6 °F 77% 29.92 in 6.2 mi Calm Calm - N/A   Mostly Cloudy
10:50 AM 62.6 °F 55.4 °F 77% 29.95 in 6.2 mi Calm Calm - N/A   Mostly Cloudy
11:50 AM 64.4 °F 57.2 °F 77% 29.95 in 6.2 mi NE 4.6 mph - N/A   Scattered Clouds
12:50 PM 66.2 °F 57.2 °F 73% 29.95 in 6.2 mi ENE 5.8 mph - N/A   Partly Cloudy
1:50 PM 66 °F 59 °F 72% 29.94 in 12 mi East 5.8 mph - -   Scattered Clouds
1:50 PM 66.2 °F 59.0 °F 78% 29.92 in 6.2 mi East 5.8 mph - N/A   Partly Cloudy
2:50 PM 66.2 °F 59.0 °F 78% 29.89 in 6.2 mi ENE 4.6 mph - N/A   Partly Cloudy
3:50 PM 68.0 °F 59.0 °F 73% 29.86 in 6.2 mi East 6.9 mph - N/A   Partly Cloudy
4:50 PM 68.0 °F 55.4 °F 64% 29.86 in 6.2 mi East 6.9 mph - N/A   Scattered Clouds
5:50 PM 66.2 °F 55.4 °F 68% 29.83 in 6.2 mi ESE 6.9 mph - N/A   Scattered Clouds
6:50 PM 66.2 °F 57.2 °F 73% 29.83 in 6.2 mi East 2.3 mph - N/A   Scattered Clouds
7:50 PM 66 °F 56 °F 62% 29.83 in 9 mi East 3.5 mph - -   Scattered Clouds
7:50 PM 66.2 °F 55.4 °F 68% 29.83 in 6.2 mi East 3.5 mph - N/A   Scattered Clouds
8:50 PM 66.2 °F 55.4 °F 68% 29.83 in 6.2 mi East 3.5 mph - N/A   Scattered Clouds
9:50 PM 64.4 °F 59.0 °F 83% 29.83 in 6.2 mi Calm Calm - N/A   Scattered Clouds
10:50 PM 64.4 °F 59.0 °F 83% 29.80 in 6.2 mi Calm Calm - N/A   Scattered Clouds
11:50 PM 64.4 °F 59.0 °F 83% 29.80 in 6.2 mi Calm Calm - N/A   Unknown